Temperature
17 17 17 17 17 17 17 17 17 17 17 17 17 17 17 17 17 17 17 17 17 17 17 17 17 17 18 18 18 18 18 18 18 18 18 18 18 18 18 18 18 18 18
17 17 17 17 17 17 17 17 16 16 16 16 16 16 16 17 17 17 17 17 17 17 17 17 17 17 17 17 18 18 18 18 18 18 18 18 18 18 18 18 18 18 18
17 17 17 17 17 16 16 16 16 16 16 16 16 16 16 16 16 17 16 16 17 17 17 17 17 17 17 17 17 17 18 18 18 17 17 17 18 18 18 18 18 18 18
17 17 17 17 16 16 16 16 16 16 16 16 16 16 16 16 16 16 16 16 16 17 17 17 17 17 17 17 17 17 17 17 17 17 17 17 17 18 18 18 18 18 18
17 17 17 17 16 16 16 16 16 16 16 16 16 16 16 16 16 16 16 16 16 16 17 17 17 17 17 17 17 17 17 17 17 17 17 17 17 17 18 18 18 18 18
17 17 17 17 16 16 16 16 16 16 16 16 16 16 16 16 16 16 16 16 16 16 16 17 17 17 17 17 17 17 17 17 17 17 17 17 17 17 17 17 17 18 18
17 17 17 17 17 16 16 16 16 16 16 16 16 16 16 16 16 16 16 16 16 16 16 16 17 17 17 17 17 17 17 17 17 17 17 17 17 17 17 17 17 17 17
17 17 17 17 17 17 16 16 16 16 16 16 16 16 16 16 16 16 16 16 16 16 16 16 16 17 17 17 17 17 17 17 17 17 17 17 17 17 17 17 17 17 17
18 17 17 17 17 17 16 16 16 16 16 16 16 16 16 16 16 16 16 16 16 16 16 16 16 16 17 17 17 17 17 17 17 17 17 17 17 17 17 17 17 17 17
18 18 18 17 17 17 17 16 16 16 16 16 16 16 16 16 16 16 16 16 16 16 16 16 16 16 17 17 17 17 17 17 17 17 17 17 17 17 17 17 17 17 17
18 18 18 18 17 17 17 17 16 16 16 16 16 16 16 16 16 16 16 16 16 16 16 16 16 16 16 16 17 17 17 17 17 17 17 17 17 17 17 17 17 17 17
19 19 18 18 18 17 17 17 17 16 16 16 16 16 16 16 16 16 16 16 16 16 16 16 16 16 16 16 16 16 16 17 17 17 16 16 17 17 17 17 17 17 17
19 19 19 18 18 18 17 17 17 17 17 17 16 16 16 16 16 16 16 16 16 16 16 16 16 16 16 16 16 16 16 16 16 16 16 16 16 16 17 17 17 17 17
19 19 19 19 18 18 17 17 17 17 17 17 17 17 17 16 16 16 16 16 16 16 16 16 16 16 16 16 16 16 16 16 16 16 16 16 16 16 16 16 16 17 17
19 19 18 18 18 18 18 17 17 17 17 17 17 17 17 17 16 16 16 16 16 16 16 16 16 16 16 16 16 16 16 16 16 16 16 16 16 16 16 16 16 16 16
19 19 18 18 18 18 18 17 17 17 17 17 17 17 17 17 17 16 16 16 16 16 16 16 16 16 16 16 16 16 16 16 16 16 16 16 16 16 16 16 16 16 16
19 19 18 18 18 18 17 17 17 17 17 17 17 17 17 17 17 16 16 16 16 16 16 16 16 16 15 15 15 15 15 15 15 15 15 15 16 16 16 16 16 16 16
19 18 18 18 18 18 17 17 17 17 17 17 16 17 17 17 16 16 16 16 16 16 16 16 16 15 15 15 15 15 15 15 15 15 15 15 15 15 15 15 15 16 16
19 19 18 18 18 17 17 17 17 17 17 16 16 16 16 16 16 16 16 16 16 16 16 15 15 15 15 15 15 15 15 15 15 15 15 15 15 15 15 15 15 15 15
19 18 18 18 18 17 17 17 17 17 17 16 16 16 16 16 16 16 16 16 16 15 15 15 15 15 15 15 15 15 15 15 15 15 15 15 14 14 14 14 15 15 15
19 18 18 18 17 17 17 17 17 17 16 16 16 16 16 16 16 16 16 16 15 15 15 15 15 15 15 15 15 15 15 15 15 15 15 14 14 14 14 14 14 14 15
19 18 18 18 17 17 17 17 17 17 16 16 16 16 16 16 16 16 16 15 15 15 15 15 15 15 15 15 15 15 15 15 15 15 15 14 14 14 14 14 14 14 14
19 18 18 18 18 17 17 17 17 17 16 16 16 16 16 16 16 16 16 15 15 15 15 15 15 15 15 15 15 15 15 15 15 14 14 14 14 14 14 14 14 14 14
19 18 18 18 18 17 17 17 17 16 16 16 16 16 16 16 16 15 15 15 15 15 15 15 15 15 15 15 15 15 15 15 15 14 14 14 14 14 14 14 14 14 14
18 18 18 18 18 17 17 17 17 16 16 16 16 16 16 16 16 15 15 15 15 15 15 15 15 15 15 15 15 15 15 15 15 15 14 14 14 14 14 14 14 14 14
18 18 18 18 17 17 17 17 17 16 16 16 16 16 16 16 16 16 15 15 15 15 15 15 15 15 15 15 15 15 15 15 15 15 15 14 14 14 14 14 14 14 14
Wind_Speed
8 11 10 10 11 11 11 11 11 11 11 11 11 11 11 11 11 11 11 11 11 11 11 10 11 11 11 10 10 10 10 9 9 8 9 9 9 8 8 8 9 8 9
11 13 11 11 11 11 11 11 11 10 10 11 11 10 10 10 11 11 10 11 11 11 11 11 11 11 10 10 10 10 9 8 7 6 7 8 8 8 8 9 9 8 9
11 14 12 11 11 11 10 10 10 10 10 10 10 10 10 10 10 10 10 11 11 11 10 10 10 10 10 10 10 9 8 7 6 5 4 5 8 9 9 9 9 8 8
12 14 12 11 11 11 10 10 10 10 10 10 10 10 10 10 11 11 11 11 11 10 10 9 9 9 9 9 9 8 7 7 7 7 5 7 9 9 9 8 8 8 8
12 14 12 11 11 11 10 10 10 10 10 10 10 10 10 10 10 10 10 10 10 10 10 9 8 9 9 8 7 7 7 7 7 7 8 10 10 10 10 9 8 8 7
11 14 12 11 11 11 10 10 9 9 9 9 9 9 9 9 10 9 9 9 10 10 10 9 9 9 8 7 7 6 7 8 7 8 10 10 10 11 10 9 8 8 7
11 13 13 12 11 10 10 10 10 10 9 9 9 9 9 9 9 9 9 9 9 9 9 9 9 9 8 8 7 6 7 7 6 9 10 9 10 11 11 10 9 9 8
10 12 13 12 12 11 11 10 9 9 9 8 8 8 8 8 8 8 8 8 8 8 8 8 8 8 8 7 7 7 8 7 8 9 10 9 11 11 11 10 10 9 8
8 9 11 12 12 12 11 10 9 8 7 7 6 6 6 6 7 7 7 7 7 7 8 7 7 7 7 6 6 6 7 7 7 7 9 10 11 11 11 10 10 9 9
6 7 8 10 12 12 12 9 8 7 5 5 4 4 4 5 6 6 7 7 6 6 6 6 6 6 5 5 4 5 6 7 7 9 10 10 11 11 11 11 10 9 9
5 5 6 7 8 9 10 9 8 7 5 5 5 5 5 4 5 7 8 7 6 5 5 4 4 3 3 2 2 3 5 5 8 10 10 11 12 11 11 10 10 10 10
5 5 6 6 6 7 7 7 4 5 4 4 3 4 4 5 7 8 8 6 5 4 3 2 2 1 1 1 1 2 4 6 8 10 10 12 12 12 11 11 10 10 10
5 4 5 6 6 6 5 5 3 3 2 4 5 6 6 6 6 7 6 5 4 3 2 2 2 1 2 3 4 4 6 8 9 10 11 12 12 12 11 11 10 10 10
5 4 4 4 5 6 6 4 3 3 3 3 4 6 6 3 3 3 3 3 3 3 3 3 2 4 6 7 7 7 8 8 9 10 10 12 12 12 12 12 12 11 11
6 5 4 4 5 6 4 2 4 3 3 4 3 4 6 3 2 2 3 4 4 5 4 3 4 5 5 6 8 8 8 9 9 10 10 12 12 12 12 13 12 12 12
6 6 5 5 5 4 4 3 3 3 3 3 4 4 7 5 3 2 3 3 4 4 5 5 5 4 4 5 6 8 8 8 8 10 10 11 13 13 14 14 14 13 12
6 7 6 5 5 5 5 3 4 3 4 3 4 5 6 7 6 5 3 3 4 6 6 6 6 5 5 5 6 6 7 8 7 8 10 10 11 13 14 15 14 14 14
6 7 6 4 6 6 4 3 2 4 4 4 5 6 6 7 8 6 3 3 5 7 5 4 4 5 5 5 5 5 5 6 7 8 9 10 9 10 12 14 14 15 15
6 7 6 5 5 5 3 2 3 4 4 5 6 7 7 7 8 7 3 3 6 5 3 4 5 4 4 4 4 4 4 4 5 7 7 9 10 10 10 11 13 15 15
5 6 7 5 4 4 2 2 3 3 3 5 6 7 7 7 7 6 4 5 6 4 4 4 4 3 2 2 4 5 3 3 4 5 5 7 8 9 9 9 10 11 14
6 6 6 5 4 4 2 2 2 2 3 3 4 6 6 6 6 6 4 4 4 4 4 4 3 3 2 2 2 2 3 4 4 3 4 4 6 8 9 10 9 9 10
6 5 6 5 5 4 3 2 2 3 3 4 4 5 6 6 6 4 4 3 3 3 4 4 3 2 1 1 1 1 2 2 3 3 3 3 4 6 7 9 10 10 10
6 5 5 6 6 6 4 3 3 3 2 3 3 2 4 6 6 6 5 4 3 3 3 2 2 2 1 2 2 2 2 1 0 2 3 3 4 4 4 7 9 10 11
6 5 5 5 6 6 5 4 3 3 2 3 3 3 3 5 5 5 5 4 3 4 4 2 3 2 2 2 2 2 2 2 2 1 1 2 3 4 4 5 7 9 10
6 4 4 5 5 5 5 4 3 3 2 2 3 4 4 3 4 4 4 4 3 3 3 3 3 3 2 2 2 2 3 2 1 2 1 0 1 2 2 3 5 6 8
7 5 5 5 5 4 5 5 4 3 3 4 3 3 3 3 2 3 3 3 3 3 3 2 2 3 2 3 2 2 2 2 2 1 1 1 1 1 2 3 3 4 6
Wind_Direction
93 89 81 77 72 69 66 67 66 64 64 65 65 65 64 61 60 59 60 61 64 63 61 61 63 65 66 65 64 62 61 60 65 72 73 73 71 69 68 66 64 66 71
104 97 85 78 75 73 72 70 67 66 66 65 62 64 65 62 62 61 60 63 63 61 60 61 64 66 66 65 61 59 58 56 54 66 74 73 73 72 69 68 69 68 69
104 101 88 78 75 74 74 74 72 68 66 65 63 63 64 64 65 64 63 65 65 63 62 63 67 66 66 65 61 55 50 44 33 32 50 84 82 76 71 73 73 70 67
97 92 86 82 78 74 75 75 73 70 67 66 65 64 64 66 66 66 65 65 65 64 63 65 71 68 66 63 60 53 43 28 18 27 48 65 73 76 73 72 73 70 67
97 96 92 86 82 79 78 75 72 71 68 66 65 67 69 70 69 66 63 64 65 63 64 63 69 70 67 64 58 48 35 20 21 43 60 69 69 73 72 69 67 67 65
107 104 102 95 89 85 81 77 74 73 69 67 68 70 72 71 70 67 64 65 66 64 63 64 66 69 69 63 54 40 27 25 30 56 65 67 68 69 67 65 62 60 60
109 110 112 106 99 91 85 80 75 73 72 71 71 73 74 73 70 68 67 67 67 67 66 66 68 69 68 64 53 37 29 29 54 65 67 65 68 68 63 60 58 54 50
113 115 118 121 112 101 91 84 79 76 76 77 79 81 80 79 75 71 70 70 71 71 72 71 70 70 68 60 49 37 31 34 51 72 71 66 67 65 62 58 54 52 47
110 121 129 135 126 115 105 97 91 87 87 90 93 96 97 97 91 82 79 76 76 76 75 74 74 74 70 63 50 37 31 36 36 63 70 66 66 65 62 57 52 51 48
115 121 126 132 135 136 128 123 120 117 116 121 128 132 128 123 114 101 95 90 85 83 80 82 82 81 78 70 50 31 20 28 43 58 65 65 67 66 62 57 51 49 47
113 119 118 116 117 125 133 131 150 151 162 179 189 191 184 174 134 110 99 106 99 95 94 95 93 95 99 92 45 25 27 51 65 69 67 67 69 66 61 56 53 51 48
131 122 118 116 113 106 99 122 141 136 158 188 142 142 135 100 100 106 119 125 123 117 122 132 132 151 190 161 123 50 46 62 74 74 71 73 68 63 58 54 53 52 49
109 97 108 118 113 110 98 93 79 89 104 74 67 89 85 90 112 125 141 152 157 152 141 147 185 176 103 88 77 77 69 64 72 73 72 68 64 60 55 53 53 53 50
98 91 85 97 106 95 83 90 83 64 61 67 43 80 87 70 70 93 111 105 105 88 71 78 81 64 58 61 62 61 68 71 77 81 73 67 62 56 51 50 54 55 53
114 106 84 79 83 94 93 78 88 65 40 64 37 74 92 82 70 75 87 81 76 77 78 57 61 57 56 50 56 60 65 70 81 86 80 71 63 56 51 50 54 54 54
118 108 90 84 81 88 101 92 79 89 82 57 28 50 84 84 77 63 73 72 70 67 69 74 71 62 63 61 56 59 57 62 75 89 89 78 68 63 58 54 56 55 53
112 106 97 96 89 76 76 75 88 84 87 67 40 36 73 81 76 64 57 65 71 71 65 62 66 63 68 67 62 60 57 54 60 79 85 82 76 70 65 58 57 54 52
117 111 109 99 95 81 70 62 78 75 71 71 53 32 51 78 82 74 57 54 66 74 74 65 61 61 63 61 57 51 54 52 52 63 77 77 73 72 68 64 61 58 53
122 118 112 93 97 96 89 86 51 69 64 68 63 41 35 55 73 80 59 56 66 61 56 68 66 65 70 72 81 70 64 55 49 57 62 69 70 70 69 65 64 60 55
121 117 119 116 106 109 96 82 68 53 65 70 67 58 37 41 56 77 77 62 68 66 59 71 74 71 71 72 79 78 78 79 60 50 53 60 63 66 64 68 67 60 55
133 127 128 132 130 115 99 87 88 83 69 74 73 68 57 47 45 61 68 67 61 71 72 79 75 68 58 80 74 72 69 70 71 65 54 54 56 58 59 60 64 66 60
139 143 146 143 136 126 117 114 116 106 94 88 70 62 59 58 43 55 70 87 81 80 71 71 74 57 23 44 75 92 89 43 29 68 66 57 52 52 52 53 54 60 62
151 156 154 150 142 134 125 97 88 82 77 93 99 84 58 62 51 43 54 69 86 93 95 90 72 67 21 356 39 63 88 102 20 34 64 69 58 46 44 51 53 55 57
153 160 161 146 136 128 123 117 124 120 120 122 126 121 102 75 65 52 52 65 77 84 92 87 90 68 57 8 3 24 61 112 125 98 14 67 75 62 49 49 50 53 61
147 147 134 122 120 121 122 122 120 112 123 114 109 114 116 93 81 74 57 57 68 80 90 81 74 63 46 41 26 15 19 20 50 120 137 80 56 70 73 62 62 55 64
140 140 135 130 126 133 138 143 136 119 108 102 106 114 119 114 95 90 87 70 72 77 72 74 88 95 68 43 28 23 35 32 18 50 82 123 122 107 90 73 68 65 71
Height
1531 1530 1530 1529 1529 1529 1529 1529 1529 1530 1530 1530 1530 1530 1530 1530 1530 1530 1530 1530 1530 1531 1531 1532 1532 1533 1533 1534 1535 1535 1536 1536 1537 1537 1538 1538 1538 1538 1539 1539 1539 1539 1540
1531 1531 1530 1530 1530 1530 1530 1530 1530 1531 1531 1531 1531 1531 1531 1531 1531 1532 1532 1532 1532 1532 1533 1533 1533 1534 1534 1535 1536 1536 1537 1538 1538 1538 1539 1539 1539 1539 1539 1540 1540 1540 1540
1532 1532 1531 1531 1531 1531 1531 1531 1531 1532 1532 1532 1532 1532 1532 1532 1533 1533 1533 1533 1533 1533 1534 1534 1535 1535 1536 1536 1537 1537 1538 1539 1539 1539 1540 1540 1540 1540 1540 1541 1541 1541 1541
1534 1533 1533 1532 1532 1532 1532 1532 1533 1533 1533 1533 1533 1533 1533 1534 1534 1534 1534 1534 1534 1535 1535 1535 1536 1536 1537 1537 1538 1538 1539 1540 1540 1540 1540 1541 1541 1541 1541 1541 1542 1542 1542
1534 1534 1534 1534 1534 1534 1534 1534 1534 1534 1534 1534 1534 1534 1535 1535 1535 1535 1535 1535 1536 1536 1536 1537 1537 1538 1538 1539 1539 1540 1540 1541 1541 1541 1541 1542 1542 1542 1542 1542 1543 1543 1543
1536 1535 1535 1535 1535 1535 1535 1535 1535 1535 1535 1536 1536 1536 1536 1536 1536 1536 1537 1537 1537 1537 1537 1538 1538 1539 1539 1540 1541 1541 1542 1542 1542 1542 1542 1543 1543 1543 1543 1543 1543 1544 1544
1537 1537 1537 1537 1537 1537 1537 1537 1537 1537 1537 1537 1537 1537 1537 1537 1538 1538 1538 1538 1538 1538 1539 1539 1539 1540 1541 1541 1542 1542 1543 1543 1543 1543 1543 1544 1544 1544 1544 1544 1544 1544 1544
1539 1539 1539 1539 1539 1539 1539 1539 1539 1539 1539 1539 1538 1539 1539 1539 1539 1539 1539 1539 1539 1539 1540 1540 1541 1541 1542 1542 1543 1544 1544 1544 1544 1545 1545 1545 1545 1545 1545 1545 1545 1545 1545
1540 1540 1540 1540 1541 1541 1541 1541 1541 1541 1541 1541 1541 1541 1541 1541 1541 1541 1541 1541 1541 1541 1541 1542 1542 1543 1543 1544 1544 1545 1545 1546 1546 1546 1546 1546 1546 1546 1545 1545 1545 1545 1545
1542 1542 1543 1542 1542 1542 1543 1543 1543 1543 1543 1543 1543 1543 1543 1543 1543 1542 1542 1542 1542 1542 1543 1543 1544 1544 1545 1545 1546 1546 1547 1547 1547 1547 1547 1547 1547 1546 1546 1546 1545 1545 1545
1544 1544 1545 1545 1545 1545 1545 1545 1545 1545 1545 1545 1545 1545 1545 1545 1545 1545 1545 1544 1544 1544 1544 1545 1545 1546 1546 1547 1547 1548 1548 1548 1548 1548 1548 1548 1548 1547 1547 1546 1546 1546 1546
1544 1545 1546 1546 1547 1547 1547 1546 1546 1547 1547 1547 1547 1548 1547 1547 1547 1547 1547 1547 1546 1546 1546 1547 1547 1547 1548 1548 1549 1549 1549 1549 1549 1549 1549 1549 1549 1548 1547 1547 1546 1546 1546
1546 1546 1546 1547 1548 1548 1548 1548 1548 1549 1549 1549 1549 1549 1549 1549 1549 1549 1549 1548 1548 1548 1548 1549 1549 1549 1549 1550 1550 1550 1550 1550 1550 1550 1550 1550 1549 1549 1548 1547 1547 1547 1547
1546 1547 1547 1548 1549 1549 1549 1549 1550 1550 1550 1551 1551 1551 1551 1551 1551 1551 1551 1550 1550 1550 1550 1551 1550 1551 1551 1551 1551 1551 1551 1551 1551 1551 1551 1551 1550 1550 1549 1548 1547 1547 1547
1547 1548 1548 1549 1549 1550 1550 1550 1551 1551 1552 1552 1552 1552 1552 1552 1552 1552 1553 1552 1552 1552 1552 1552 1552 1552 1552 1552 1552 1552 1552 1552 1552 1552 1552 1552 1551 1551 1550 1549 1548 1547 1547
1547 1548 1549 1549 1550 1551 1551 1551 1552 1552 1552 1553 1553 1553 1553 1553 1554 1554 1554 1554 1554 1553 1553 1553 1553 1553 1553 1553 1553 1553 1553 1553 1553 1553 1553 1553 1552 1552 1551 1550 1549 1548 1548
1547 1548 1549 1550 1551 1551 1552 1552 1553 1553 1554 1554 1554 1555 1555 1555 1555 1555 1555 1555 1555 1555 1555 1555 1555 1554 1554 1554 1554 1554 1554 1554 1555 1555 1554 1554 1553 1553 1552 1551 1551 1550 1549
1548 1549 1550 1551 1552 1552 1553 1553 1554 1554 1555 1555 1555 1555 1556 1556 1556 1556 1556 1556 1557 1557 1556 1556 1556 1556 1556 1556 1556 1556 1556 1556 1556 1556 1556 1555 1555 1554 1554 1553 1552 1551 1550
1548 1549 1550 1551 1552 1553 1553 1554 1555 1555 1556 1556 1556 1556 1557 1557 1557 1557 1558 1558 1558 1558 1558 1557 1557 1557 1557 1557 1557 1557 1558 1558 1558 1558 1558 1557 1557 1556 1555 1555 1554 1553 1552
1548 1549 1550 1552 1553 1553 1554 1555 1555 1556 1557 1557 1557 1557 1558 1558 1558 1559 1559 1559 1559 1559 1559 1559 1559 1559 1559 1559 1559 1559 1560 1560 1560 1559 1559 1559 1559 1558 1557 1556 1555 1554 1553
1548 1549 1551 1552 1553 1554 1554 1555 1556 1557 1557 1558 1558 1558 1559 1559 1559 1560 1560 1560 1560 1560 1560 1560 1560 1560 1560 1561 1561 1561 1561 1562 1561 1561 1561 1561 1560 1560 1559 1557 1556 1555 1554
1548 1549 1551 1552 1553 1554 1555 1556 1557 1557 1558 1558 1559 1559 1559 1559 1560 1560 1561 1561 1561 1561 1561 1561 1561 1562 1562 1562 1562 1562 1563 1564 1563 1563 1563 1562 1561 1561 1560 1559 1557 1556 1555
1547 1549 1550 1552 1553 1554 1555 1556 1557 1558 1559 1559 1559 1559 1560 1560 1560 1561 1561 1562 1562 1562 1562 1562 1562 1563 1563 1563 1563 1563 1563 1564 1564 1565 1564 1564 1563 1562 1561 1560 1559 1558 1556
1546 1548 1550 1552 1553 1554 1555 1556 1557 1558 1559 1560 1560 1560 1560 1561 1561 1561 1562 1562 1563 1563 1563 1563 1563 1563 1564 1564 1564 1564 1565 1564 1565 1565 1565 1565 1564 1563 1562 1561 1560 1559 1557
1545 1548 1550 1551 1553 1554 1555 1556 1557 1558 1559 1560 1561 1561 1561 1561 1562 1562 1563 1563 1563 1564 1564 1564 1564 1564 1564 1564 1564 1565 1564 1565 1565 1565 1565 1565 1564 1564 1563 1562 1561 1560 1558
1544 1547 1549 1550 1552 1553 1555 1556 1557 1558 1559 1560 1561 1561 1562 1562 1563 1563 1563 1564 1564 1564 1564 1565 1565 1565 1565 1565 1565 1565 1565 1565 1565 1565 1565 1565 1565 1564 1564 1563 1562 1561 1559